EW5393 Weather Reports


Display with metric or nautical units.
time (UTC)temp
F
wind
direction
speed
MPH
gust
MPH
rain 1hr
in
rain 24hr
in
rain mn
in
humidity
%
barometer
mb
20260904161804 53 53 1.0 1.0 0.00 0.10 0.00 75 1014.3
20260904161304 53 53 1.0 1.0 0.00 0.10 0.00 75 1014.5
20260904160803 53 53 1.0 1.0 0.00 0.10 0.00 75 1014.4
20260904160304 53 53 1.0 1.0 0.00 0.10 0.00 75 1014.3
20260904155804 53 53 1.0 1.0 0.00 0.10 0.00 74 1014.0
20260904155306 53 53 1.0 1.0 0.00 0.10 0.00 74 1014.1
20260904154803 53 53 1.0 1.0 0.00 0.10 0.00 73 1013.9
20260904153803 54 53 1.0 1.0 0.00 0.10 0.00 73 1014.0
20260904153304 54 53 1.0 1.0 0.00 0.10 0.00 72 1013.9
20260904152803 54 53 1.0 1.0 0.00 0.10 0.00 72 1013.7
20260904152306 54 53 1.0 1.0 0.00 0.10 0.00 69 1013.9
20260904151804 54 53 1.0 1.0 0.00 0.10 0.00 68 1013.8
20260904151303 54 53 1.0 1.0 0.00 0.10 0.00 66 1013.5
20260904150803 54 53 1.0 1.0 0.00 0.10 0.00 65 1013.2
20260904145804 54 53 1.0 1.0 0.00 0.10 0.00 64 1013.2
20260904145305 54 53 1.0 1.0 0.00 0.10 0.00 65 1013.0
20260904144804 53 53 1.0 1.0 0.00 0.10 0.00 65 1013.0
20260904144304 53 53 1.0 1.0 0.00 0.10 0.00 65 1013.1
20260904143804 53 53 1.0 1.0 0.00 0.10 0.00 65 1012.8
20260904143303 53 53 1.0 1.0 0.00 0.10 0.00 64 1012.9
20260904142804 53 53 1.0 1.0 0.00 0.10 0.00 64 1012.9
20260904142306 53 53 1.0 1.0 0.00 0.10 0.00 64 1012.8
20260904141804 53 53 1.0 1.0 0.00 0.10 0.00 65 1012.4
20260904141304 52 53 1.0 1.0 0.00 0.10 0.00 65 1012.6
20260904140303 52 53 1.0 1.0 0.00 0.10 0.00 66 1012.4
20260904135804 51 53 1.0 1.0 0.00 0.10 0.00 66 1012.2
20260904134303 51 53 1.0 1.0 0.00 0.10 0.00 67 1012.1
20260904133304 51 53 1.0 1.0 0.00 0.10 0.00 67 1011.9
20260904132804 50 53 1.0 1.0 0.00 0.10 0.00 67 1012.0
20260904131804 50 53 1.0 1.0 0.00 0.10 0.00 67 1011.8
20260904131304 50 53 1.0 1.0 0.00 0.10 0.00 67 1011.6
20260904130804 50 53 1.0 1.0 0.00 0.10 0.00 67 1011.8
20260904125803 50 53 1.0 1.0 0.00 0.10 0.00 67 1011.6
20260904125305 50 53 1.0 1.0 0.00 0.10 0.00 67 1011.7
20260904124804 50 53 1.0 1.0 0.00 0.10 0.00 66 1011.6
20260904124304 50 53 1.0 1.0 0.00 0.10 0.00 66 1011.4
20260904123804 51 53 1.0 1.0 0.00 0.10 0.00 66 1011.4
20260904123304 51 53 1.0 1.0 0.00 0.10 0.00 65 1011.4
20260904122803 51 53 1.0 1.0 0.00 0.10 0.00 65 1011.4
20260904122306 51 53 1.0 1.0 0.00 0.10 0.00 65 1011.4
20260904121804 51 53 1.0 1.0 0.00 0.10 0.00 65 1011.2
20260904121304 51 53 1.0 1.0 0.00 0.10 0.00 65 1011.1
20260904120804 51 53 1.0 1.0 0.00 0.10 0.00 65 1011.3
20260904120304 51 53 1.0 1.0 0.00 0.10 0.00 64 1011.2
20260904115804 51 53 1.0 1.0 0.00 0.10 0.00 64 1011.3
20260904115306 51 53 1.0 1.0 0.00 0.10 0.00 64 1011.0
20260904114804 51 53 1.0 1.0 0.00 0.10 0.00 64 1011.0
20260904114303 51 53 1.0 1.0 0.00 0.10 0.00 65 1011.0
20260904113804 51 53 1.0 1.0 0.00 0.10 0.00 65 1010.9
20260904113304 51 53 1.0 1.0 0.00 0.10 0.00 65 1010.9
20260904112804 51 53 1.0 1.0 0.00 0.10 0.00 65 1011.1
20260904112306 51 53 1.0 1.0 0.00 0.10 0.00 65 1010.7
20260904111804 50 53 1.0 1.0 0.00 0.10 0.00 65 1010.7
20260904111304 50 53 1.0 1.0 0.00 0.10 0.00 65 1010.6
20260904110804 50 53 1.0 1.0 0.00 0.10 0.00 64 1010.6
20260904105804 50 53 1.0 1.0 0.00 0.10 0.00 64 1010.6
20260904105306 51 53 1.0 1.0 0.00 0.10 0.00 64 1010.4
20260904104804 51 53 1.0 1.0 0.00 0.10 0.00 63 1010.5
20260904104304 51 53 1.0 1.0 0.00 0.10 0.00 63 1010.3
20260904103303 51 53 1.0 1.0 0.00 0.10 0.00 63 1010.3
20260904102804 51 53 1.0 1.0 0.00 0.10 0.00 63 1010.2
20260904102306 51 53 1.0 1.0 0.00 0.10 0.00 63 1010.3
20260904101304 51 53 1.0 1.0 0.00 0.10 0.00 63 1010.2
20260904100803 51 53 1.0 1.0 0.00 0.10 0.00 64 1009.9
20260904100303 51 53 1.0 1.0 0.00 0.10 0.00 64 1010.0
20260904095804 50 53 1.0 1.0 0.00 0.10 0.00 64 1009.9
20260904095306 50 53 1.0 1.0 0.00 0.10 0.00 65 1009.9
20260904094804 50 53 1.0 1.0 0.00 0.10 0.00 65 1009.9
20260904094304 50 53 1.0 1.0 0.00 0.10 0.00 65 1010.1
20260904093303 50 53 1.0 1.0 0.00 0.10 0.00 66 1010.0
20260904092804 49 53 1.0 1.0 0.00 0.10 0.00 67 1009.9
20260904092306 49 53 1.0 1.0 0.00 0.10 0.00 67 1009.9
20260904091804 49 53 1.0 1.0 0.00 0.10 0.00 67 1009.8
20260904091304 49 53 1.0 1.0 0.00 0.10 0.00 68 1009.9
20260904090804 49 53 1.0 1.0 0.00 0.10 0.00 68 1009.8
20260904090304 49 53 1.0 1.0 0.00 0.10 0.00 67 1009.7
20260904084804 49 53 1.0 1.0 0.00 0.10 0.00 69 1009.9
20260904084304 49 53 1.0 1.0 0.00 0.10 0.00 69 1010.1
20260904083804 49 53 1.0 1.0 0.00 0.10 0.00 68 1010.1
20260904083304 49 53 1.0 1.0 0.00 0.10 0.00 67 1009.9
20260904082804 50 53 1.0 1.0 0.00 0.10 0.00 67 1009.9
20260904082305 50 53 1.0 1.0 0.00 0.10 0.00 67 1010.1
20260904081804 50 53 1.0 1.0 0.00 0.10 0.00 67 1010.1
20260904080803 50 53 1.0 1.0 0.00 0.10 0.00 65 1009.9
20260904080304 51 53 1.0 1.0 0.00 0.10 0.00 65 1010.1
20260904075804 51 53 1.0 1.0 0.00 0.10 0.00 64 1009.8
20260904075306 51 53 1.0 1.0 0.00 0.10 0.00 64 1010.0
20260904074803 51 53 1.0 1.0 0.00 0.10 0.00 63 1009.9
20260904073304 51 53 1.0 1.0 0.00 0.10 0.00 61 1009.7
20260904072804 51 53 1.0 1.0 0.00 0.10 0.00 63 1009.7
20260904072306 52 53 1.0 1.0 0.00 0.10 0.00 62 1009.6
20260904071803 52 53 1.0 1.0 0.00 0.10 0.00 62 1009.6
20260904071304 52 53 1.0 1.0 0.00 0.10 0.00 62 1009.6
20260904070804 52 53 1.0 1.0 0.00 0.10 0.00 61 1009.5
20260904070304 52 53 1.0 1.0 0.00 0.10 0.00 62 1009.5
20260904065804 52 53 1.0 1.0 0.00 0.10 0.00 60 1009.4
20260904065306 53 53 1.0 1.0 0.00 0.10 0.00 60 1009.3
20260904064803 53 53 1.0 1.0 0.00 0.10 0.00 59 1009.2
20260904064304 53 53 1.0 1.0 0.00 0.10 0.00 59 1009.3
20260904063804 53 53 1.0 1.0 0.00 0.10 0.00 60 1009.0
20260904063303 53 53 1.0 1.0 0.00 0.10 0.00 60 1009.1
20260904062804 53 53 1.0 1.0 0.00 0.10 0.00 60 1009.0
20260904062306 53 53 1.0 1.0 0.00 0.10 0.00 59 1008.9
20260904061804 53 53 1.0 1.0 0.00 0.10 0.00 59 1008.8
20260904061305 53 53 1.0 1.0 0.00 0.10 0.00 59 1008.7
20260904060804 53 53 1.0 1.0 0.00 0.10 0.00 59 1008.8
20260904055804 53 53 1.0 1.0 0.00 0.10 0.10 59 1008.7
20260904055306 54 53 1.0 1.0 0.00 0.10 0.10 60 1008.7
20260904054304 54 53 1.0 1.0 0.00 0.10 0.10 59 1008.6
20260904053804 54 53 1.0 1.0 0.00 0.10 0.10 59 1008.6
20260904053303 54 53 1.0 1.0 0.00 0.10 0.10 59 1008.4
20260904052803 54 53 1.0 1.0 0.00 0.10 0.10 59 1008.4
20260904052306 54 53 1.0 1.0 0.00 0.10 0.10 59 1008.5
20260904051804 54 53 1.0 1.0 0.00 0.10 0.10 59 1008.6
20260904050804 54 53 1.0 1.0 0.00 0.10 0.10 60 1008.5
20260904045804 54 53 1.0 1.0 0.00 0.10 0.10 60 1008.5
20260904045306 54 53 1.0 1.0 0.00 0.10 0.10 60 1008.4
20260904044804 55 53 1.0 1.0 0.00 0.10 0.10 61 1008.2
20260904043803 55 53 1.0 1.0 0.00 0.10 0.10 61 1008.3
20260904043304 55 53 1.0 1.0 0.00 0.10 0.10 62 1008.4
20260904042804 55 53 1.0 1.0 0.00 0.10 0.10 61 1008.5
20260904042306 55 53 1.0 1.0 0.00 0.10 0.10 62 1008.5
20260904041804 55 53 1.0 1.0 0.00 0.10 0.10 62 1008.5
20260904041303 56 53 1.0 1.0 0.00 0.10 0.10 62 1008.4
20260904040804 56 53 1.0 1.0 0.00 0.10 0.10 62 1008.6
20260904035804 56 53 1.0 1.0 0.00 0.10 0.10 63 1008.6
20260904035306 57 53 1.0 1.0 0.00 0.10 0.10 63 1008.8
20260904034804 57 53 1.0 1.0 0.00 0.10 0.10 63 1008.7
20260904034304 57 53 1.0 1.0 0.01 0.10 0.10 63 1008.8
20260904033804 58 53 1.0 1.0 0.01 0.10 0.10 63 1008.7
20260904033303 58 53 1.0 1.0 0.01 0.10 0.10 61 1008.8
20260904032804 58 53 1.0 1.0 0.01 0.10 0.10 61 1008.8
20260904032306 58 53 1.0 1.0 0.01 0.10 0.10 61 1008.8
20260904031803 58 53 1.0 1.0 0.01 0.10 0.10 62 1008.7
20260904031304 59 53 1.0 1.0 0.01 0.10 0.10 66 1008.7
20260904030803 59 53 1.0 1.0 0.01 0.10 0.10 64 1008.6
20260904030304 59 53 1.0 1.0 0.01 0.10 0.10 65 1008.7
20260904025804 60 53 1.0 1.0 0.01 0.10 0.10 73 1008.7
20260904025306 60 53 1.0 1.0 0.01 0.10 0.10 74 1008.6
20260904024804 60 53 1.0 1.0 0.01 0.10 0.10 72 1008.6
20260904024304 60 53 1.0 1.0 0.00 0.09 0.09 72 1008.3
20260904023804 61 53 1.0 1.0 0.00 0.09 0.09 71 1008.4
20260904023304 61 53 1.0 1.0 0.00 0.09 0.09 72 1008.3
20260904022804 61 53 1.0 1.0 0.00 0.09 0.09 71 1008.1
20260904022306 61 53 1.0 1.0 0.00 0.09 0.09 71 1008.2
20260904021804 61 53 1.0 1.0 0.00 0.09 0.09 70 1008.1
20260904021304 61 53 1.0 1.0 0.00 0.09 0.09 69 1008.0
20260904020804 61 53 1.0 1.0 0.00 0.09 0.09 69 1007.9
20260904020304 61 53 1.0 1.0 0.00 0.09 0.09 68 1007.9
20260904015804 61 53 1.0 1.0 0.00 0.09 0.09 68 1007.7
20260904015306 61 53 1.0 1.0 0.00 0.09 0.09 68 1007.9
20260904014804 61 53 1.0 1.0 0.00 0.09 0.09 67 1007.8
20260904014304 61 53 1.0 1.0 0.00 0.09 0.09 67 1007.7
20260904013804 61 53 1.0 1.0 0.00 0.09 0.09 67 1007.7
20260904013304 61 53 1.0 1.0 0.00 0.09 0.09 67 1007.5
20260904012804 61 53 1.0 1.0 0.00 0.09 0.09 67 1007.7
20260904012306 61 53 1.0 1.0 0.00 0.09 0.09 67 1007.7
20260904011804 61 53 1.0 1.0 0.00 0.09 0.09 67 1007.4
20260904011304 61 53 1.0 1.0 0.00 0.09 0.09 66 1007.5
20260904010803 62 53 1.0 1.0 0.00 0.09 0.09 66 1007.5
20260904010304 62 53 1.0 1.0 0.00 0.09 0.09 66 1007.5
20260904005804 62 53 1.0 1.0 0.00 0.09 0.09 66 1007.6
20260904005306 62 53 1.0 1.0 0.00 0.09 0.09 65 1007.4
20260904004804 62 53 1.0 1.0 0.00 0.09 0.09 64 1007.5
20260904004304 62 53 1.0 1.0 0.00 0.09 0.09 62 1007.4
20260904003304 63 53 1.0 1.0 0.00 0.09 0.09 60 1007.3
20260904002804 63 53 1.0 1.0 0.00 0.09 0.09 60 1007.4
20260904002306 63 53 1.0 1.0 0.00 0.09 0.09 59 1007.5
20260904001804 63 53 1.0 1.0 0.00 0.09 0.09 58 1007.6
20260904001304 63 53 1.0 1.0 0.00 0.09 0.09 58 1007.5
20260904000804 63 53 1.0 1.0 0.00 0.09 0.09 58 1007.3
20260903235804 63 53 1.0 1.0 0.00 0.09 0.09 61 1007.4
20260903234804 62 53 1.0 1.0 0.00 0.09 0.09 61 1007.3
20260903234305 62 53 1.0 1.0 0.00 0.09 0.09 62 1007.3
20260903233804 62 53 1.0 1.0 0.00 0.09 0.09 61 1007.5
20260903232804 63 53 1.0 1.0 0.00 0.09 0.09 60 1007.5
20260903232306 63 53 1.0 1.0 0.00 0.09 0.09 62 1007.6
20260903231804 62 53 1.0 1.0 0.00 0.09 0.09 62 1007.4
20260903231304 63 53 1.0 1.0 0.00 0.09 0.09 60 1007.5
20260903230804 63 53 1.0 1.0 0.00 0.09 0.09 60 1007.5
20260903230304 63 53 1.0 1.0 0.00 0.09 0.09 61 1007.4
20260903225306 64 53 1.0 1.0 0.00 0.09 0.09 61 1007.4
20260903224804 64 53 1.0 1.0 0.00 0.09 0.09 60 1007.5
20260903224304 64 53 1.0 1.0 0.00 0.09 0.09 63 1007.4
20260903223304 64 53 1.0 1.0 0.00 0.09 0.09 61 1007.3
20260903222305 64 53 1.0 1.0 0.00 0.09 0.09 58 1007.1
20260903221303 64 53 1.0 1.0 0.00 0.09 0.09 63 1007.4
20260903220804 64 53 1.0 1.0 0.00 0.09 0.09 66 1007.5
20260903220304 63 53 1.0 1.0 0.00 0.09 0.09 67 1007.2
20260903215804 64 53 1.0 1.0 0.00 0.09 0.09 65 1007.4
20260903215306 64 53 1.0 1.0 0.00 0.09 0.09 63 1007.3
20260903214804 63 53 1.0 1.0 0.00 0.09 0.09 64 1007.5
20260903214304 63 53 1.0 1.0 0.00 0.09 0.09 65 1007.4
20260903213804 64 53 1.0 1.0 0.00 0.09 0.09 65 1007.5
20260903213303 64 53 1.0 1.0 0.00 0.09 0.09 67 1007.3
20260903212804 63 53 1.0 1.0 0.00 0.09 0.09 66 1007.4
20260903212306 63 53 1.0 1.0 0.00 0.09 0.09 66 1007.3
20260903211804 63 53 1.0 1.0 0.00 0.09 0.09 67 1007.5
20260903211303 62 53 1.0 1.0 0.00 0.09 0.09 70 1007.4
20260903210304 62 53 1.0 1.0 0.00 0.09 0.09 72 1007.3
20260903205804 61 53 1.0 1.0 0.00 0.09 0.09 74 1007.4
20260903205306 61 53 1.0 1.0 0.00 0.09 0.09 74 1007.3
20260903204804 60 53 1.0 1.0 0.00 0.09 0.09 73 1007.3
20260903204304 60 53 1.0 1.0 0.00 0.09 0.09 73 1007.2
20260903203804 60 53 1.0 1.0 0.00 0.09 0.09 76 1007.1
20260903202804 59 53 1.0 1.0 0.00 0.09 0.09 76 1007.2
20260903202306 59 53 1.0 1.0 0.01 0.09 0.09 78 1007.1
20260903201804 58 53 1.0 1.0 0.02 0.09 0.09 79 1007.0
20260903201304 58 53 1.0 1.0 0.03 0.09 0.09 81 1007.3
20260903200804 58 53 1.0 1.0 0.05 0.09 0.09 80 1006.9
20260903200304 57 53 1.0 1.0 0.06 0.09 0.09 80 1007.1
20260903195804 57 53 1.0 1.0 0.07 0.09 0.09 81 1007.3
20260903195306 56 53 1.0 1.0 0.08 0.09 0.09 82 1007.2
20260903194804 56 53 1.0 1.0 0.09 0.09 0.09 82 1007.2
20260903194304 56 53 1.0 1.0 0.09 0.09 0.09 82 1007.4
20260903193804 56 53 1.0 1.0 0.09 0.09 0.09 82 1007.4
20260903193304 56 53 1.0 1.0 0.09 0.09 0.09 82 1007.5
20260903192804 56 53 1.0 1.0 0.09 0.09 0.09 80 1007.5
20260903192306 56 53 1.0 1.0 0.08 0.08 0.08 79 1007.6
20260903191804 57 53 1.0 1.0 0.07 0.07 0.07 78 1007.6
20260903191304 57 53 1.0 1.0 0.06 0.06 0.06 77 1007.7
20260903190804 57 53 1.0 1.0 0.04 0.04 0.04 77 1007.8
20260903190303 58 53 1.0 1.0 0.03 0.03 0.03 75 1007.7
20260903185804 58 53 1.0 1.0 0.02 0.02 0.02 74 1007.6
20260903185306 58 53 1.0 1.0 0.01 0.01 0.01 73 1007.8
20260903184804 58 53 1.0 1.0 0.00 0.00 0.00 72 1007.5
20260903183804 59 53 1.0 1.0 0.00 0.00 0.00 68 1007.5
20260903183303 59 53 1.0 1.0 0.00 0.00 0.00 67 1007.4
20260903182804 59 53 1.0 1.0 0.00 0.00 0.00 66 1007.4
20260903182306 59 53 1.0 1.0 0.00 0.00 0.00 65 1007.2
20260903181804 60 53 1.0 1.0 0.00 0.00 0.00 64 1007.1
20260903181303 60 53 1.0 1.0 0.00 0.00 0.00 63 1007.1
20260903180804 61 53 1.0 1.0 0.00 0.00 0.00 63 1007.3
20260903180304 61 53 1.0 1.0 0.00 0.00 0.00 62 1007.2
20260903175804 62 53 1.0 1.0 0.00 0.00 0.00 64 1007.2
20260903175306 62 53 1.0 1.0 0.00 0.00 0.00 67 1007.1
20260903174804 62 53 1.0 1.0 0.00 0.00 0.00 66 1007.0
20260903174303 62 53 1.0 1.0 0.00 0.00 0.00 65 1006.8
20260903173804 63 53 1.0 1.0 0.00 0.00 0.00 64 1006.8
20260903173304 63 53 1.0 1.0 0.00 0.00 0.00 64 1006.7
20260903172804 63 53 1.0 1.0 0.00 0.00 0.00 65 1006.7
20260903172306 63 53 1.0 1.0 0.00 0.00 0.00 66 1006.6
20260903171804 63 53 1.0 1.0 0.00 0.00 0.00 65 1006.5
20260903170804 63 53 1.0 1.0 0.00 0.00 0.00 64 1006.6
20260903170304 64 53 1.0 1.0 0.00 0.00 0.00 63 1006.5
20260903165804 64 53 1.0 1.0 0.00 0.00 0.00 63 1006.6
20260903165305 64 53 1.0 1.0 0.00 0.00 0.00 63 1006.6
20260903164304 64 53 1.0 1.0 0.00 0.00 0.00 62 1006.5
20260903163803 65 53 1.0 1.0 0.00 0.00 0.00 62 1006.2
20260903163304 65 53 1.0 1.0 0.00 0.00 0.00 62 1006.2
20260903162306 65 53 1.0 1.0 0.00 0.00 0.00 61 1006.3